Wind_Speed
54 55 55 48 52 60 67 71 70 68 68 65 56 56 52 46 50 50 47 47 46 43 36 42 41 36 34 31 32 33 33 33 33 32 32 31 29 30 29 26 26 24 23 24
56 54 50 52 49 56 64 70 68 61 62 65 60 58 51 44 47 50 46 46 46 42 42 40 36 39 38 32 33 37 32 34 36 35 35 35 34 33 31 29 24 26 27 29
54 51 51 51 50 51 57 66 63 60 63 65 67 64 60 43 43 55 48 46 45 41 41 41 37 34 35 35 34 34 35 36 37 39 40 39 36 34 32 30 30 32 33 30
53 52 50 50 46 45 49 56 56 55 60 69 74 68 62 47 42 48 54 51 46 43 41 39 38 37 36 34 35 36 35 36 38 41 40 39 37 36 34 34 35 36 34 31
53 52 49 51 42 42 42 41 58 53 56 59 72 73 63 52 41 45 50 47 46 41 41 38 38 39 39 39 39 39 38 37 37 39 38 38 35 33 35 35 37 37 34 33
52 53 49 49 45 43 39 38 45 54 48 58 75 74 66 57 40 42 50 48 40 42 39 41 41 44 40 37 37 38 41 39 37 35 33 32 31 32 34 33 33 33 32 32
52 52 50 51 50 42 40 36 32 35 38 47 58 68 66 60 43 37 42 36 44 38 41 41 38 34 32 33 35 38 40 38 36 37 36 31 31 34 31 32 34 32 30 30
51 52 51 48 47 47 48 50 51 52 54 46 47 68 66 61 47 40 38 36 37 38 39 39 37 33 30 29 30 29 33 38 40 41 37 34 35 35 31 32 32 31 31 32
50 50 46 47 45 45 40 47 45 47 43 50 61 72 74 67 49 43 47 38 33 40 40 39 37 34 31 31 30 29 33 34 34 34 34 34 33 32 31 32 33 34 34 35
39 44 48 43 41 37 38 36 38 43 44 45 48 62 71 64 48 40 39 41 36 43 40 38 36 33 33 32 33 34 35 34 33 33 33 33 33 32 33 34 33 34 35 36
42 48 47 49 47 45 50 49 51 50 48 48 46 55 57 54 47 50 46 38 42 47 40 38 42 38 34 36 37 37 38 37 36 36 37 37 36 35 37 36 35 35 37 38
53 41 52 46 45 44 45 46 50 48 48 53 60 62 42 42 45 48 54 50 42 49 52 46 49 44 40 40 43 42 43 42 39 39 41 40 40 41 39 37 37 40 40 41
52 55 51 52 46 46 44 47 46 38 43 45 51 61 53 49 43 45 49 51 45 47 50 48 48 46 47 48 47 48 47 48 46 45 43 43 44 44 43 42 43 43 43 42
51 57 57 52 49 43 44 38 39 39 42 37 40 48 37 41 42 46 40 42 48 43 47 55 53 50 48 49 49 51 52 50 46 46 47 48 49 49 48 47 47 45 45 44
44 50 52 54 52 55 57 51 48 45 46 45 34 41 38 37 36 43 45 36 32 37 38 44 44 47 50 50 51 50 52 58 58 54 51 53 55 54 52 52 51 48 47 47
37 40 36 35 44 54 57 52 49 49 48 48 32 39 30 36 41 42 46 39 39 43 48 48 44 45 46 51 54 55 52 52 53 54 57 57 57 58 56 55 53 53 52 52
38 38 39 43 37 35 40 54 54 50 42 44 50 32 28 29 42 43 42 54 54 48 50 52 44 40 43 46 50 52 54 53 53 55 57 59 59 59 58 56 56 56 56 57
40 40 41 46 52 51 46 45 47 50 50 43 43 43 39 35 31 40 50 54 56 58 56 52 53 55 48 47 50 50 51 54 53 54 56 57 60 59 58 59 59 60 61 62
44 43 44 46 48 50 45 45 47 46 52 47 41 40 41 40 45 37 38 39 50 57 62 57 55 54 52 47 47 49 54 55 57 58 60 62 63 62 62 62 63 65 67 66
43 45 44 45 48 49 44 43 46 51 47 40 37 33 38 42 45 36 31 38 47 52 62 66 63 57 51 47 50 51 54 55 58 60 63 65 65 65 65 65 67 66 65 66
39 41 44 45 48 49 47 46 47 47 43 49 49 48 49 48 45 40 38 41 45 50 57 62 65 63 61 58 57 55 56 60 67 70 67 67 66 68 74 75 70 67 65 66
36 39 41 44 47 47 48 50 48 45 48 50 49 50 54 52 47 45 43 42 41 43 51 56 61 65 71 67 64 63 65 66 67 67 70 74 77 80 79 74 68 67 64 65
36 37 38 42 45 47 50 52 48 45 52 56 48 48 50 54 55 54 47 44 45 45 41 47 56 63 67 71 71 70 71 71 73 74 75 77 80 77 72 69 70 69 67 66
34 35 38 43 44 48 51 53 53 49 47 51 55 51 55 55 55 57 54 52 51 51 52 53 46 59 64 68 74 76 77 80 80 80 78 73 74 73 71 69 64 60 60 60
37 40 41 41 43 48 48 50 52 50 48 47 54 54 52 57 54 55 58 58 57 54 50 51 52 50 58 63 64 67 72 74 74 74 72 68 66 61 60 60 58 56 56 56
41 43 45 44 46 49 48 49 53 54 53 51 45 50 51 56 58 48 49 54 57 58 56 53 52 53 54 60 61 60 59 58 58 57 57 57 56 57 57 55 53 52 51 51
Wind_Direction
241 244 247 255 255 248 246 247 248 247 247 242 239 240 241 249 246 234 235 234 233 231 223 226 226 228 234 236 245 243 240 243 247 251 251 251 253 255 260 260 266 275 276 276
243 245 249 250 255 248 245 246 247 249 251 252 244 239 241 244 242 235 230 233 236 230 229 232 231 231 228 230 236 244 241 242 245 247 251 251 250 254 259 265 267 270 268 266
245 244 248 249 250 253 249 247 247 248 249 253 247 235 240 242 245 241 234 233 237 236 234 233 234 230 231 236 240 239 237 238 242 246 249 252 253 256 261 263 260 259 264 272
241 243 244 249 249 250 252 249 245 243 246 252 253 238 236 238 247 247 239 238 236 238 239 234 236 237 235 235 237 240 242 243 242 246 248 252 254 257 260 263 264 265 266 271
240 242 245 248 253 250 254 247 243 243 245 248 251 248 231 234 250 248 245 242 235 233 237 231 235 236 233 233 235 238 242 246 246 246 249 252 256 258 259 262 262 266 269 272
236 240 242 242 244 243 246 236 247 242 244 245 248 251 236 233 246 253 248 247 237 233 234 227 228 234 238 238 241 242 244 247 251 252 253 257 258 255 256 258 262 262 266 271
234 237 240 239 243 241 225 228 236 243 246 251 248 251 241 239 240 249 251 251 232 229 226 224 229 237 238 243 246 248 245 244 249 253 256 251 251 253 254 255 258 262 265 269
235 237 238 239 243 244 234 233 242 247 246 242 249 247 239 243 239 248 258 238 220 218 222 227 231 233 237 241 244 244 240 239 244 249 250 249 244 243 247 253 255 261 264 268
236 234 234 237 239 239 232 228 238 247 251 250 242 249 244 247 246 249 258 240 235 217 224 226 230 231 238 241 242 240 240 240 240 243 244 246 241 245 250 251 258 265 270 273
228 233 232 230 232 228 225 232 238 233 242 246 246 251 250 250 245 240 231 239 244 224 219 223 228 229 238 243 240 238 239 237 235 237 240 243 245 246 249 253 260 265 269 273
229 233 235 236 230 232 224 227 232 245 251 253 250 248 253 251 249 241 237 242 248 241 225 225 228 237 242 242 241 237 236 234 234 236 242 246 247 247 250 255 260 263 266 271
218 232 235 240 232 237 237 240 242 248 250 254 256 244 247 252 253 240 239 243 237 236 236 237 238 243 242 247 239 239 239 238 237 241 244 245 244 248 251 256 259 261 264 268
225 232 236 233 236 238 244 247 248 253 255 256 256 250 247 249 254 249 246 239 252 237 233 238 243 247 245 243 239 236 238 238 241 245 247 245 246 248 252 254 257 260 263 267
226 233 233 239 237 244 243 242 243 248 260 256 261 251 253 248 245 244 244 249 245 253 243 240 246 248 251 241 241 237 236 237 241 246 246 245 247 249 251 254 257 258 260 264
228 230 232 235 237 243 247 249 253 256 258 260 250 256 253 238 238 238 235 233 241 250 249 246 243 243 241 241 242 241 239 238 242 246 245 245 247 251 254 256 259 257 261 265
227 232 232 242 243 245 247 249 252 256 255 259 258 255 266 260 244 235 231 218 214 223 224 224 228 238 239 241 241 241 242 241 241 242 244 245 247 251 254 257 257 259 263 269
232 232 230 227 239 234 241 247 251 253 258 264 261 261 247 261 243 235 228 225 223 212 221 224 224 228 235 239 243 242 243 245 245 245 246 246 248 251 254 256 258 263 268 271
237 238 237 238 239 245 247 245 252 256 253 262 258 261 264 255 266 245 233 233 232 226 221 220 223 227 229 234 237 239 239 240 242 244 246 249 250 252 254 256 259 264 269 273
241 241 245 247 249 248 247 247 249 253 250 252 259 261 256 257 254 250 245 250 241 234 223 220 224 223 227 234 239 239 237 236 238 241 244 246 249 252 254 257 261 266 270 275
244 245 246 248 251 251 249 243 250 248 249 246 248 251 252 253 252 247 256 249 241 236 236 235 236 231 233 240 244 247 244 243 242 244 245 249 253 255 259 262 264 269 275 278
249 250 249 250 254 252 252 252 253 249 253 253 251 251 260 259 260 250 254 258 247 240 237 235 237 234 241 243 245 247 246 249 250 251 252 253 256 260 264 263 265 268 273 276
251 252 253 252 253 255 258 259 259 252 245 247 246 249 248 254 258 259 260 259 260 246 243 242 239 238 236 243 246 243 247 247 248 251 252 253 256 258 262 267 272 275 274 274
253 255 255 253 256 254 256 259 261 252 245 247 250 250 251 251 250 254 259 262 262 261 261 254 248 243 239 238 238 240 246 250 249 248 250 253 255 262 270 273 271 272 272 272
254 253 254 256 255 254 253 256 260 262 256 251 250 253 250 252 247 248 251 254 256 251 259 266 260 250 246 245 243 240 243 247 250 250 254 262 266 270 271 269 268 267 269 270
258 259 261 260 258 256 254 255 258 260 259 260 255 252 247 245 246 245 247 251 254 258 260 259 260 263 254 251 249 250 251 254 258 261 263 264 264 264 265 265 266 268 268 269
261 263 261 260 257 258 257 255 256 259 261 258 257 250 251 248 248 252 254 252 254 256 256 259 259 259 264 255 251 251 252 253 256 257 257 258 259 262 264 266 267 266 266 267
Height
5716 5719 5730 5740 5739 5745 5747 5748 5756 5766 5771 5773 5778 5778 5789 5794 5792 5797 5805 5808 5812 5818 5823 5822 5826 5830 5833 5838 5842 5845 5847 5849 5849 5852 5854 5854 5855 5856 5857 5857 5858 5860 5859 5858
5707 5717 5726 5726 5729 5731 5735 5738 5746 5753 5759 5761 5765 5768 5777 5785 5787 5790 5796 5799 5805 5811 5816 5817 5820 5823 5826 5830 5834 5837 5839 5841 5842 5844 5846 5847 5848 5850 5851 5852 5854 5854 5854 5852
5698 5710 5714 5717 5720 5722 5726 5731 5738 5743 5747 5750 5753 5757 5767 5780 5777 5780 5787 5792 5796 5805 5810 5813 5815 5818 5819 5823 5827 5829 5830 5831 5833 5836 5837 5840 5842 5845 5846 5846 5846 5846 5846 5847
5688 5697 5703 5706 5711 5716 5718 5727 5726 5730 5736 5740 5746 5744 5759 5773 5773 5773 5781 5784 5790 5796 5801 5804 5808 5811 5814 5819 5818 5818 5820 5824 5827 5827 5830 5833 5835 5838 5839 5839 5839 5839 5840 5840
5684 5688 5694 5699 5707 5708 5712 5716 5718 5721 5724 5729 5736 5740 5747 5766 5769 5769 5772 5777 5782 5788 5791 5796 5798 5801 5805 5807 5809 5810 5812 5815 5818 5821 5824 5827 5828 5831 5831 5832 5832 5832 5832 5832
5675 5679 5685 5694 5697 5702 5707 5709 5712 5713 5716 5712 5730 5734 5735 5755 5766 5764 5764 5769 5773 5777 5780 5785 5788 5791 5795 5799 5802 5804 5806 5808 5810 5814 5817 5821 5822 5823 5824 5825 5825 5825 5824 5824
5665 5670 5678 5684 5688 5693 5699 5703 5704 5704 5705 5709 5716 5719 5730 5744 5758 5758 5757 5761 5765 5769 5772 5776 5781 5786 5789 5791 5794 5796 5799 5803 5804 5806 5808 5812 5814 5815 5818 5818 5818 5818 5818 5818
5656 5662 5671 5678 5681 5685 5690 5694 5694 5697 5701 5705 5702 5711 5725 5731 5747 5750 5749 5750 5753 5762 5767 5771 5775 5778 5779 5782 5783 5786 5790 5796 5797 5798 5800 5802 5804 5806 5809 5810 5810 5812 5812 5811
5648 5652 5662 5668 5671 5676 5679 5680 5689 5690 5690 5691 5692 5705 5712 5720 5738 5742 5743 5744 5748 5752 5758 5762 5767 5771 5773 5774 5776 5778 5782 5786 5789 5792 5793 5795 5797 5799 5801 5802 5803 5804 5804 5804
5640 5646 5652 5658 5661 5668 5673 5680 5683 5679 5682 5684 5686 5687 5700 5714 5727 5732 5734 5736 5740 5744 5749 5755 5759 5762 5766 5767 5769 5771 5775 5778 5781 5783 5786 5787 5790 5791 5793 5794 5797 5796 5796 5796
5636 5638 5644 5645 5651 5661 5665 5667 5672 5673 5674 5675 5679 5681 5694 5702 5714 5722 5724 5729 5733 5736 5739 5745 5750 5753 5757 5760 5762 5765 5767 5770 5772 5776 5778 5780 5782 5783 5784 5787 5788 5789 5787 5787
5627 5631 5633 5640 5645 5650 5654 5659 5663 5664 5672 5671 5670 5666 5689 5694 5699 5706 5710 5715 5720 5725 5731 5735 5740 5744 5748 5751 5754 5757 5759 5762 5765 5767 5769 5772 5774 5775 5777 5778 5779 5778 5778 5777
5620 5622 5625 5631 5635 5639 5644 5650 5655 5659 5657 5661 5662 5663 5680 5685 5688 5691 5698 5706 5712 5717 5720 5724 5729 5732 5735 5739 5743 5746 5749 5752 5755 5757 5760 5763 5765 5767 5768 5768 5768 5768 5768 5768
5608 5612 5618 5624 5628 5632 5636 5641 5645 5648 5647 5655 5651 5656 5666 5672 5677 5679 5687 5694 5700 5706 5710 5714 5717 5720 5723 5726 5731 5734 5737 5741 5744 5746 5749 5752 5753 5755 5756 5757 5758 5757 5757 5757
5598 5604 5610 5615 5618 5620 5624 5631 5635 5637 5643 5640 5654 5648 5658 5663 5664 5668 5674 5682 5689 5694 5697 5700 5704 5706 5709 5713 5718 5723 5725 5728 5732 5736 5738 5739 5741 5743 5744 5745 5745 5746 5746 5745
5591 5596 5602 5606 5610 5611 5613 5619 5625 5630 5636 5635 5642 5641 5653 5653 5651 5654 5662 5667 5671 5678 5682 5684 5688 5693 5697 5701 5706 5709 5713 5716 5719 5722 5724 5727 5728 5730 5732 5733 5734 5734 5733 5732
5585 5590 5594 5596 5598 5601 5603 5614 5616 5622 5624 5631 5629 5642 5648 5637 5640 5645 5647 5651 5654 5659 5667 5673 5676 5681 5686 5690 5694 5698 5702 5705 5707 5710 5712 5714 5715 5717 5719 5720 5721 5721 5720 5720
5576 5581 5584 5587 5589 5589 5601 5607 5608 5608 5613 5618 5621 5631 5635 5635 5633 5632 5635 5635 5640 5648 5654 5659 5665 5671 5674 5678 5683 5687 5688 5691 5694 5697 5699 5700 5702 5704 5705 5706 5707 5708 5707 5706
5567 5571 5574 5577 5579 5584 5592 5596 5597 5597 5604 5612 5619 5626 5624 5621 5615 5624 5627 5627 5631 5634 5640 5644 5649 5654 5661 5665 5670 5673 5676 5678 5680 5683 5685 5686 5687 5690 5691 5693 5694 5693 5692 5691
5558 5561 5565 5568 5568 5573 5583 5588 5585 5588 5597 5606 5609 5613 5606 5600 5601 5621 5623 5616 5615 5617 5620 5625 5632 5640 5646 5651 5656 5660 5663 5665 5668 5668 5670 5672 5675 5676 5677 5679 5678 5676 5676 5675
5548 5552 5556 5560 5559 5566 5570 5574 5576 5582 5599 5588 5592 5594 5592 5595 5597 5604 5606 5603 5606 5609 5611 5614 5619 5626 5631 5635 5640 5646 5649 5651 5653 5655 5657 5659 5660 5660 5661 5660 5660 5660 5661 5661
5541 5542 5546 5549 5551 5558 5558 5560 5565 5574 5573 5572 5579 5580 5582 5584 5589 5591 5593 5595 5595 5599 5601 5605 5607 5611 5615 5619 5623 5628 5632 5633 5635 5638 5640 5642 5643 5643 5643 5644 5646 5646 5646 5645
5531 5535 5537 5540 5544 5546 5543 5544 5549 5557 5558 5560 5565 5568 5569 5573 5578 5580 5583 5584 5586 5589 5592 5595 5597 5600 5602 5604 5606 5610 5613 5616 5618 5620 5622 5624 5624 5625 5627 5629 5630 5630 5629 5629
5522 5524 5526 5527 5533 5531 5533 5535 5537 5542 5545 5547 5550 5555 5558 5560 5563 5566 5571 5571 5573 5577 5580 5582 5584 5586 5588 5590 5593 5593 5596 5599 5601 5603 5605 5608 5610 5611 5611 5612 5613 5613 5613 5613
5514 5515 5517 5520 5519 5518 5524 5526 5527 5529 5531 5534 5535 5539 5542 5545 5548 5551 5555 5557 5559 5561 5566 5569 5571 5573 5575 5576 5578 5579 5582 5586 5588 5590 5591 5592 5593 5593 5595 5596 5595 5595 5596 5597
5504 5505 5505 5508 5508 5507 5510 5512 5514 5516 5517 5519 5521 5524 5528 5531 5535 5538 5541 5542 5544 5547 5550 5554 5557 5560 5561 5562 5563 5564 5566 5569 5571 5573 5574 5575 5576 5577 5578 5578 5580 5581 5581 5581